Погода в Усть-Таловке

Россия / Алтайский край     51°29′16″N   82°17′15″E
темп.,
°C
ветер,
м/с
пор.,
м/с
влажн.,
%
обл.,
%
осадки,
мм/ч
давл.,
гПа
погр.,
м
10 августа, ср
ср1001:00+15ююв3386100 0.8 100733
04:00+15ююв33835 0.0 100744
07:00+15ю37820 0.0 1008147
10:00+23ююз46515 0.0 1008932
13:00+28ююз453473 0.0 10072486
16:00+24з2342100 0.0 1008237
19:00+26св12361 0.0 10071861
22:00+20ююз115610 0.1 100811
11 августа, чт
чт1101:00+18ю33695 0.1 100838
04:00+15ююв00828 0.1 100811
07:00+15ююв2279100 0.1 100820
10:00+20ю1161100 0.3 100897
13:00+27ю453516 0.4 10071912
16:00+28юв4436100 0.3 10062154
19:00+18юв51076100 2.9 1007238
22:00+15зюз11928 1.5 101011
12 августа, пт
пт1201:00+14ююв229294 1.6 100914
04:00+13зюз1297100 0.0 101018
07:00+14ююз229696 0.0 101040
10:00+19зюз237594 0.0 1011500
13:00+24сз225041 0.1 10101475
16:00+25юв224221 0.4 10091615
19:00+26ссв2341100 0.4 10081008
22:00+19сз1165100 0.6 100911
13 августа, сб
сб1301:00+16зсз228596 1.9 100915
04:00+15в119185 2.9 100911
07:00+15ююз119134 3.3 101011
10:00+21з11735 0.8 1011323
13:00+27з343783 0.9 10092723
16:00+27зюз4633100 0.0 10081570
19:00+25зсз684569 0.0 10091103
22:00+18юз227443 0.1 101118
14 августа, вс
вс1401:00+15ююз33883 0.9 101129
04:00+14ююз349014 0.0 101048
07:00+14ююз489028 0.0 1010134
10:00+18ююз6106798 0.0 1010429
13:00+22зюз71039100 0.0 10091925
16:00+20зюз5105277 0.0 1008826
19:00+17ююз337535 0.4 100962
22:00+14ссз11705 0.0 101011